Weather History for King Salmon, AK

Change the Weather History Date:

Saturday, February 8, 2014

  Actual Average Record
Temperature  
Mean Temperature 24 °F 18 °F  
Max Temperature 36 °F 26 °F 48 °F (2003)
Min Temperature 12 °F 10 °F -30 °F (1984)
Degree Days  
Heating Degree Days 41 47  
Month to date heating degree days 267 382  
Since 1 July heating degree days 5437 6708  
Cooling Degree Days 0    
Month to date cooling degree days 0  
Year to date cooling degree days 0  
Moisture  
Dew Point 18 °F    
Average Humidity 0    
Maximum Humidity 0    
Minimum Humidity 0    
Precipitation  
Precipitation 0.00 in 0.03 in 0.22 in (1971)
Month to date precipitation T 0.23  
Year to date precipitation 1.75 1.25  
Snow  
Snow 0.00 in 0.30 in 3.00 in (1990)
Month to date snowfall T 1.9  
Since 1 July snowfall 25.4 31.4  
Snow Depth 0.00 in    
Sea Level Pressure  
Sea Level Pressure 30.06 in    
Wind  
Wind Speed 17 mph (NNE)    
Max Wind Speed 30 mph    
Max Gust Speed 44 mph    
Visibility 10 miles    
Events      
T = Trace of Precipitation, MM = Missing Value Source: NWS Daily Summary

Daily Weather History Graph

Daily Weather History Graph

Search for Another Location

Airport:

Trip Planner

Search our weather history database for the weather conditions in past years. The results will help you decide how hot, cold, wet, or windy it might be!

Date:

Astronomy

Feb. 08, 2014 Rise Set
Actual Time 9:16 AM AKST 6:05 PM AKST
Civil Twilight 8:33 AM AKST 6:49 PM AKST
Nautical Twilight 7:45 AM AKST 7:36 PM AKST
Astronomical Twilight 6:59 AM AKST 8:23 PM AKST
Moon 12:43 PM AKST (2/8) 5:02 AM AKST (2/8)
Length of Visible Light 10h 15m
Length of Day
8h 49m
Waxing Gibbous, 70% of the Moon is Illuminated
Feb 8
Waxing Gibbous
Feb 14
Full
Feb 22
Last Quarter
Feb 28
New
Mar 8
First Quarter

Hourly Weather History & Observations

Time (AKST) Temp. Windchill Dew Point Humidity Pressure Visibility Wind Dir Wind Speed Gust Speed Precip Events Conditions
12:54 AM 33.1 °F 21.5 °F 27.0 °F 78% 29.80 in 10.0 mi NNE 19.6 mph 28.8 mph N/A   Partly Cloudy
1:54 AM 34.0 °F 22.1 °F 28.0 °F 79% 29.82 in 10.0 mi NE 21.9 mph 33.4 mph N/A   Scattered Clouds
2:54 AM 34.0 °F 22.7 °F 28.0 °F 79% 29.84 in 10.0 mi NE 19.6 mph 32.2 mph N/A   Clear
3:54 AM 35.1 °F 23.5 °F 27.0 °F 72% 29.88 in 10.0 mi NE 21.9 mph 32.2 mph N/A   Clear
4:54 AM 35.1 °F 24.1 °F 26.1 °F 70% 29.91 in 10.0 mi ENE 19.6 mph 28.8 mph N/A   Clear
5:54 AM 34.0 °F 24.6 °F 26.1 °F 73% 29.95 in 10.0 mi NE 13.8 mph 23.0 mph N/A   Clear
6:54 AM 36.0 °F 29.0 °F 23.0 °F 59% 29.98 in 10.0 mi NNE 9.2 mph - N/A   Clear
7:54 AM 35.1 °F 28.6 °F 23.0 °F 61% 30.01 in 10.0 mi North 8.1 mph - N/A   Scattered Clouds
8:54 AM 28.0 °F 16.5 °F 21.9 °F 78% 30.03 in 10.0 mi North 15.0 mph - N/A   Scattered Clouds
9:54 AM 25.0 °F 12.2 °F 21.0 °F 85% 30.07 in 10.0 mi North 16.1 mph - N/A   Scattered Clouds
10:54 AM 24.1 °F 10.6 °F 17.1 °F 75% 30.10 in 10.0 mi North 17.3 mph 23.0 mph N/A   Partly Cloudy
11:54 AM 26.1 °F 14.0 °F 17.1 °F 69% 30.12 in 10.0 mi North 15.0 mph 20.7 mph N/A   Partly Cloudy
12:54 PM 28.9 °F 17.7 °F 18.0 °F 64% 30.14 in 10.0 mi North 15.0 mph - N/A   Partly Cloudy
1:54 PM 32.0 °F 20.8 °F 19.9 °F 61% 30.14 in 10.0 mi North 17.3 mph - N/A   Clear
2:54 PM 35.1 °F 23.8 °F 21.9 °F 59% 30.14 in 10.0 mi NNE 20.7 mph 25.3 mph N/A   Partly Cloudy
3:54 PM 32.0 °F 21.6 °F 18.0 °F 56% 30.15 in 10.0 mi North 15.0 mph - N/A   Partly Cloudy
4:54 PM 28.0 °F 15.7 °F 15.1 °F 58% 30.16 in 10.0 mi North 17.3 mph 25.3 mph N/A   Partly Cloudy
5:54 PM 25.0 °F 11.3 °F 12.9 °F 60% 30.17 in 10.0 mi North 18.4 mph 23.0 mph N/A   Partly Cloudy
6:54 PM 21.0 °F 5.4 °F 10.9 °F 65% 30.18 in 10.0 mi North 20.7 mph 24.2 mph N/A   Partly Cloudy
7:54 PM 19.0 °F 4.0 °F 10.0 °F 68% 30.18 in 10.0 mi North 17.3 mph 24.2 mph N/A   Partly Cloudy
8:54 PM 17.1 °F 0.6 °F 8.1 °F 68% 30.19 in 10.0 mi North 19.6 mph 25.3 mph N/A   Clear
9:54 PM 15.1 °F -1.1 °F 6.1 °F 68% 30.19 in 10.0 mi North 17.3 mph 26.5 mph N/A   Clear
10:54 PM 14.0 °F -0.8 °F 5.0 °F 67% 30.19 in 10.0 mi North 13.8 mph - N/A   Clear
11:54 PM 12.0 °F -6.0 °F 3.9 °F 70% 30.18 in 10.0 mi North 19.6 mph 25.3 mph N/A   Clear